Dalton, GA

4:03 PM EST on January 18, 2017 (GMT -0500)
Dalton Municipal

Weather History for KDNN - December, 2012

Change the Weather History Date:

Monday, December 17, 2012

  Actual Average Record
Temperature  
Mean Temperature 56 °F -  
Max Temperature 60 °F 50 °F 71 °F (1984)
Min Temperature 51 °F 30 °F 9 °F (1989)
Degree Days  
Heating Degree Days 10    
Growing Degree Days 6 (Base 50)    
Moisture  
Dew Point 54 °F    
Average Humidity 99    
Maximum Humidity 100    
Minimum Humidity 82    
Precipitation  
Precipitation 0.00 in - - ()
Sea Level Pressure  
Sea Level Pressure 29.77 in    
Wind  
Wind Speed 3 mph (SSE)    
Max Wind Speed 6 mph    
Max Gust Speed -    
Visibility 9 miles    
Events Rain    
Averages and records for this station are not official NWS values.
T = Trace of Precipitation, MM = Missing Value Source: NWS Daily Summary

Daily Weather History Graph

Daily Weather History Graph

Search for Another Location

Airport or City:

Trip Planner

Search our weather history database for the weather conditions in past years. The results will help you decide how hot, cold, wet, or windy it might be!

Date:

Astronomy

Dec. 17, 2012 Rise Set
Actual Time 7:40 AM EST 5:30 PM EST
Civil Twilight 7:12 AM EST 5:58 PM EST
Nautical Twilight 6:41 AM EST 6:30 PM EST
Astronomical Twilight 6:10 AM EST 7:01 PM EST
Moon 10:58 AM EST (12/17) 10:40 PM EST (12/17)
Length of Visible Light 10h 46m
Length of Day
9h 49m
Waxing Crescent, 24% of the Moon is Illuminated
Dec 17
Waxing Crescent
Dec 20
First Quarter
Dec 28
Full
Jan 4
Last Quarter
Jan 11
New

Hourly Weather History & Observations

Time (EST) Temp. Dew Point Humidity Pressure Visibility Wind Dir Wind Speed Gust Speed Precip Events Conditions
12:15 AM 53.6 °F 53.6 °F 100% 29.83 in 10.0 mi SSW 3.5 mph - N/A   Scattered Clouds
12:35 AM 51.8 °F 51.8 °F 100% 29.83 in 10.0 mi Calm Calm - N/A   Clear
12:55 AM 51.8 °F 51.8 °F 100% 29.85 in 10.0 mi Calm Calm - N/A   Clear
1:15 AM 51.8 °F 51.8 °F 100% 29.84 in 10.0 mi Calm Calm - N/A   Clear
1:35 AM 51.8 °F 51.8 °F 100% 29.84 in 10.0 mi Calm Calm - N/A   Clear
1:55 AM 51.8 °F 51.8 °F 100% 29.84 in 10.0 mi Calm Calm - N/A   Clear
2:15 AM 51.8 °F 51.8 °F 100% 29.84 in 10.0 mi Calm Calm - N/A   Clear
2:35 AM 51.8 °F 51.8 °F 100% 29.84 in 10.0 mi South 3.5 mph - N/A   Clear
2:55 AM 51.8 °F 51.8 °F 100% 29.84 in 10.0 mi Calm Calm - N/A   Scattered Clouds
3:15 AM 51.8 °F 51.8 °F 100% 29.85 in 10.0 mi South 3.5 mph - N/A   Overcast
3:35 AM 51.8 °F 51.8 °F 100% 29.84 in 10.0 mi South 3.5 mph - N/A   Overcast
3:55 AM 51.8 °F 51.8 °F 100% 29.85 in 10.0 mi South 3.5 mph - N/A   Overcast
4:15 AM 51.8 °F 51.8 °F 100% 29.84 in 10.0 mi South 4.6 mph - N/A   Overcast
4:35 AM 51.8 °F 51.8 °F 100% 29.83 in 10.0 mi SSE 3.5 mph - N/A   Overcast
4:55 AM 51.8 °F 51.8 °F 100% 29.84 in 10.0 mi South 3.5 mph - N/A   Overcast
5:15 AM 51.8 °F 51.8 °F 100% 29.83 in 10.0 mi SSE 3.5 mph - N/A   Overcast
5:35 AM 51.8 °F 51.8 °F 100% 29.83 in 10.0 mi SSE 3.5 mph - N/A   Overcast
5:55 AM 51.8 °F 51.8 °F 100% 29.83 in 10.0 mi SSE 4.6 mph - N/A   Overcast
6:15 AM 51.8 °F 51.8 °F 100% 29.81 in 10.0 mi SE 5.8 mph - N/A   Overcast
6:35 AM 51.8 °F 51.8 °F 100% 29.82 in 10.0 mi SSE 5.8 mph - N/A   Overcast
6:55 AM 51.8 °F 51.8 °F 100% 29.82 in 10.0 mi SSE 3.5 mph - N/A   Overcast
7:15 AM 51.8 °F 51.8 °F 100% 29.81 in 10.0 mi SSE 3.5 mph - N/A   Overcast
7:35 AM 51.8 °F 51.8 °F 100% 29.81 in 10.0 mi Calm Calm - N/A   Overcast
7:55 AM 51.8 °F 51.8 °F 100% 29.81 in 10.0 mi Calm Calm - N/A   Overcast
8:15 AM 53.6 °F 53.6 °F 100% 29.82 in 10.0 mi South 3.5 mph - N/A   Overcast
8:35 AM 53.6 °F 53.6 °F 100% 29.80 in 7.0 mi Calm Calm - N/A Rain Light Rain
8:55 AM 53.6 °F 53.6 °F 100% 29.80 in 10.0 mi SSE 4.6 mph - N/A   Overcast
9:15 AM 53.6 °F 53.6 °F 100% 29.79 in 4.0 mi SSE 4.6 mph - N/A Rain Rain
9:35 AM 53.6 °F 53.6 °F 100% 29.80 in 4.0 mi SSE 5.8 mph - N/A   Drizzle
9:55 AM 53.6 °F 53.6 °F 100% 29.81 in 3.0 mi SSE 4.6 mph - N/A Rain Rain
10:15 AM 53.6 °F 53.6 °F 100% 29.80 in 4.0 mi SSE 3.5 mph - N/A Rain Light Rain
10:35 AM 53.6 °F 53.6 °F 100% 29.80 in 7.0 mi SSE 4.6 mph - N/A   Overcast
10:55 AM 53.6 °F 53.6 °F 100% 29.79 in 7.0 mi SSE 4.6 mph - N/A Rain Rain
11:15 AM 53.6 °F 53.6 °F 100% 29.78 in 10.0 mi SSE 4.6 mph - N/A   Overcast
11:35 AM 55.4 °F 55.4 °F 100% 29.77 in 10.0 mi SSE 3.5 mph - N/A   Overcast
11:55 AM 55.4 °F 55.4 °F 100% 29.76 in 10.0 mi SSE 5.8 mph - N/A   Overcast
12:15 PM 55.4 °F 55.4 °F 100% 29.75 in 10.0 mi SSE 4.6 mph - N/A   Overcast
12:35 PM 55.4 °F 55.4 °F 100% 29.74 in 10.0 mi SSE 4.6 mph - N/A   Overcast
12:55 PM 55.4 °F 55.4 °F 100% 29.73 in 10.0 mi SSE 4.6 mph - N/A   Overcast
1:15 PM 57.2 °F 57.2 °F 100% 29.73 in 10.0 mi South 3.5 mph - N/A   Overcast
1:35 PM 57.2 °F 57.2 °F 100% 29.72 in 10.0 mi Calm Calm - N/A   Overcast
1:55 PM 59.0 °F 57.2 °F 94% 29.71 in 10.0 mi South 5.8 mph - N/A   Overcast
2:15 PM 59.0 °F 57.2 °F 94% 29.71 in 10.0 mi SSW 3.5 mph - N/A   Overcast
2:35 PM 59.0 °F 57.2 °F 94% 29.70 in 10.0 mi South 4.6 mph - N/A   Mostly Cloudy
2:55 PM 59.0 °F 59.0 °F 100% 29.70 in 10.0 mi SSE 4.6 mph - N/A   Overcast
3:15 PM 59.0 °F 57.2 °F 94% 29.70 in 10.0 mi SSE 3.5 mph - N/A   Overcast
3:35 PM 59.0 °F 57.2 °F 94% 29.69 in 10.0 mi South 5.8 mph - N/A   Scattered Clouds
3:55 PM 60.8 °F 55.4 °F 82% 29.69 in 10.0 mi SSE 3.5 mph - N/A   Clear
4:15 PM 59.0 °F 57.2 °F 94% 29.68 in 10.0 mi South 4.6 mph - N/A   Scattered Clouds
4:35 PM 59.0 °F 55.4 °F 88% 29.69 in 10.0 mi South 3.5 mph - N/A   Scattered Clouds
4:55 PM 59.0 °F 55.4 °F 88% 29.69 in 10.0 mi South 3.5 mph - N/A   Scattered Clouds
7:35 PM 55.4 °F 55.4 °F 100% 29.71 in 10.0 mi SSE 3.5 mph - N/A   Clear
7:55 PM 53.6 °F 53.6 °F 100% 29.70 in 10.0 mi SSE 3.5 mph - N/A   Scattered Clouds
8:15 PM 55.4 °F 55.4 °F 100% 29.72 in 10.0 mi Calm Calm - N/A   Mostly Cloudy
8:35 PM 55.4 °F 55.4 °F 100% 29.73 in 10.0 mi Calm Calm - N/A   Overcast
8:55 PM 55.4 °F 53.6 °F 94% 29.72 in 10.0 mi SSE 3.5 mph - N/A   Overcast
9:15 PM 53.6 °F 53.6 °F 100% 29.72 in 10.0 mi Calm Calm - N/A   Mostly Cloudy
9:35 PM 53.6 °F 53.6 °F 100% 29.72 in 10.0 mi South 4.6 mph - N/A   Mostly Cloudy
9:55 PM 53.6 °F 53.6 °F 100% 29.72 in 10.0 mi SE 4.6 mph - N/A   Scattered Clouds
10:15 PM 53.6 °F 53.6 °F 100% 29.72 in 7.0 mi SE 4.6 mph - N/A   Mostly Cloudy
10:35 PM 53.6 °F 53.6 °F 100% 29.72 in 10.0 mi South 3.5 mph - N/A   Mostly Cloudy
10:55 PM 53.6 °F 53.6 °F 100% 29.73 in 10.0 mi South 4.6 mph - N/A   Scattered Clouds
11:15 PM 53.6 °F 53.6 °F 100% 29.73 in 10.0 mi SSE 3.5 mph - N/A   Scattered Clouds
11:35 PM 53.6 °F 53.6 °F 100% 29.72 in 10.0 mi SSE 3.5 mph - N/A   Scattered Clouds
11:55 PM 53.6 °F 53.6 °F 100% 29.74 in 10.0 mi Calm Calm - N/A   Scattered Clouds